Regional Weather Roundup
Issued by NWS

Home | Current Version | Previous Version | Text Only | Print | Product List | Glossary Off
Versions: 1 2 3 4 5 6 7 8 9 10 11 12 13 14 15 16 17 18 19 20 21 22 23 24 25 26 27 28 29 30 31 32 33 34 35 36 37 38 39 40 41 42 43 44 45 46 47 48 49 50

102
ASUS43 KMKX 240900
RWRWI

WISCONSIN REGIONAL WEATHER ROUNDUP
NATIONAL WEATHER SERVICE MILWAUKEE/SULLIVAN WI
400 AM CDT MON JUL 24 2017

NOTE: "FAIR" INDICATES FEW OR NO CLOUDS BELOW 12,000 FEET WITH NO
SIGNIFICANT WEATHER AND/OR OBSTRUCTIONS TO VISIBILITY.

WIZ001-002-006>008-014>016-023>028-241000-
NORTHWEST WISCONSIN

CITY           SKY/WX    TMP DP  RH WIND       PRES   REMARKS
SUPERIOR ARPT  NOT AVBL
ASHLAND        FOG       56  55  97 CALM      30.08R VSB 3/4
HAYWARD        FOG       52  51  97 N6        30.07R VSB 1/4
SIREN          FOG       49  48  97 CALM      30.07R VSB 1/2
CUMBERLAND     CLEAR     52  52 100 CALM      30.06R
RICE LAKE      CLEAR     53  52  96 CALM      30.06S FOG
CHETEK         CLEAR     56  56  97 CALM      30.05R
LADYSMITH      PTCLDY    54  53  97 N5        30.07R FOG
EAU CLAIRE     NOT AVBL
MENOMONIE      CLEAR     57  55  94 CALM      30.05R
NEW RICHMOND     N/A     54  54  98 CALM      30.06R FOG
OSCEOLA        FOG       55  55 100 CALM      30.08R VSB<1/4
$$

WIZ003>005-009-010-017-018-241000-
NORTH CENTRAL WISCONSIN

CITY           SKY/WX    TMP DP  RH WIND       PRES   REMARKS
MANITOWISH WTR CLOUDY    53  53 100 NE3       30.06S FOG
ARBOR VITAE    MOCLDY    55  54  97 CALM      30.06R
WOODRUFF       MOCLDY    55  54  97 CALM      30.06R
RHINELANDER    PTCLDY    51  51 100 NE5       30.06R
EAGLE RIVER    FOG       50  50 100 CALM      30.06R VSB 1/4
LAND O LAKES   FOG       51  51 100 N3        30.08S VSB 1/4
PHILLIPS       CLOUDY    53  53 100 N7        30.05R FOG
TOMAHAWK         N/A     49  49  97 CALM      30.06R FOG
MEDFORD        CLEAR     50  49  98 NE5       30.03S
MERRILL        NOT AVBL
$$

WIZ029-030-035-036-043>047-241000-
CENTRAL WISCONSIN

CITY           SKY/WX    TMP DP  RH WIND       PRES   REMARKS
WAUSAU         CLOUDY    56  53  90 NE6       30.04R
MOSINEE        CLOUDY    55  54  94 N8        30.05R
MARSHFIELD     CLEAR     56  52  86 NE6       30.03R
STEVENS POINT  CLOUDY    56  54  90 NE7       30.04R
WAUPACA        CLOUDY    63  56  79 NW7       30.01S
WAUTOMA        CLOUDY    60  55  83 N6        30.02R
WISC RAPIDS    CLOUDY    60  54  80 E6        30.04R
CAMP DOUGLAS   NOT AVBL
$$

WIZ011>013-019>022-031-037>040-048>050-241000-
NORTHEAST WISCONSIN

CITY           SKY/WX    TMP DP  RH WIND       PRES   REMARKS
ANTIGO         CLOUDY    54  53  96 NE5       30.05R
SHAWANO        CLOUDY    62  56  80 N8        30.01R
OCONTO         CLOUDY    59  55  84 N8        30.00R
STURGEON BAY     N/A     61  55  81 NE13      30.01R
GREEN BAY      CLOUDY    61  58  90 N9        30.00R
MANITOWOC      NOT AVBL
APPLETON       CLOUDY    59  52  77 N12       29.99R
CLINTONVILLE   CLOUDY    61  54  77 N6        30.01S
OSHKOSH        CLOUDY    61  56  83 N9        30.00R
$$

WIZ032>034-041-042-053>061-241000-
SOUTHWEST WISCONSIN

CITY           SKY/WX    TMP DP  RH WIND       PRES   REMARKS
LA CROSSE      CLEAR     64  58  80 N5        30.01R
SPARTA         CLEAR     55  54  98 NE3       30.02S
VIROQUA        CLEAR     58  58 100 CALM      30.02R
BOSCOBEL       CLEAR     62  59  90 E5        30.00R
PRAIRIE DU CHI PTCLDY    63  58  83 NW3       29.99R
PLATTEVILLE    CLEAR     62  62 100 NE8       29.98R
$$

WIZ056-057-062-063-064-067-068-241000-
SOUTH CENTRAL WISCONSIN

CITY           SKY/WX    TMP DP  RH WIND       PRES   REMARKS
REEDSBURG      CLOUDY    60  57  88 N5        30.00R
BARABOO/DELLS  CLOUDY    61  54  77 NE8       30.01R
LONE ROCK      CLEAR     61  56  83 NE5       30.00R
MINERAL POINT  CLEAR     61  61 100 N3        29.99R
MADISON        CLOUDY    60  57  89 NW5       29.98R
MIDDLETON      CLEAR     59  59  97 N3        29.99S
WATERTOWN      CLOUDY    63  59  86 N6        29.97R
MONROE         CLEAR     61  59  94 NE10      29.96S
JANESVILLE     CLOUDY    64  55  72 NE8G17    29.95S
$$

WIZ051-052-058>065-066-070>072-241000-
SOUTHEAST WISCONSIN

CITY           SKY/WX    TMP DP  RH WIND       PRES   REMARKS
MILWAUKEE      CLOUDY    65  60  84 N9        29.95S
WAUKESHA       MOCLDY    59  55  88 NW3       29.98R
MILWAUKEE/TIMM CLOUDY    61  55  82 N7        29.96S
RACINE         CLOUDY    64  61  90 N8        29.96S
KENOSHA        MOCLDY    63  59  87 N6        29.96R
FOND DU LAC    CLOUDY    64  56  75 N15       29.99R
SHEBOYGAN      CLOUDY    62  59  90 N9        29.97R
WEST BEND      CLOUDY    61  59  94 N7        29.97S
JUNEAU         CLOUDY    62  56  79 NE3       29.99R
$$

LSZ147-162-241000-
LAKE SUPERIOR

STATION/POSITION TIME  TEMP    WIND        PRES    WAVE
                       AIR SEA DIR/SP/G            HT/PER
                 (UTC) (F)     (DEG/KT/KT) (MB)    (FT/S)
W MID LAKE BUOY  0750   51 48  250/  4/  4 1018.1R   1
DEVILS ISLAND    0800   54     230/  5/  6 1018.1S
SAXON HARBOR     0830   56     150/  3/  4 1017.9R
$$

LMZ867-665-643>646-241000-
LAKE MICHIGAN

STATION/POSITION TIME  TEMP    WIND        PRES    WAVE
                       AIR SEA DIR/SP/G            HT/PER
                 (UTC) (F)     (DEG/KT/KT) (MB)    (FT/S)
CHAMBERS ISLAND  0840   62      10/ 13/ 15 1015.6R
S GREEN BAY BUOY 0830   63 72  350/ 17/ 21 1015.3R
N MID LAKE BUOY  0750   62 66   50/ 16/ 19 1014.9S   4/ 5
NORTHPORT PIER   0840   61     360/  9/ 10 1015.9R
KEWAUNEE LAKESHO 0830   62     360/  6/ 10 1014.3R
SHEBOYGAN LAKESH 0800   64      10/ 18/ 21 1014.0R
PORT WASHINGTON  0840   64     360/  5/  9 1015.2R
ATWATER BUOY     0739   66 67  360/ 12/ 14 1014.1R
MILWAUKEE LAKESH 0840   65     360/  9/ 11   N/A
S MID LAKE BUOY  0750   67 70  360/ 17/ 19 1012.6R   5/ 6
KENOSHA   LAKESH 0800   66     360/ 13/ 18 1013.5
$$

TC  - TEMPERATURE IN CELSIUS
VSB - VISIBILITY IN STATUTE MILES
WCI - WIND CHILL INDEX
HX  - HEAT INDEX





USA.gov is the U.S. government's official web portal to all federal, state and local government web resources and services.